Погода в Ушаково

Россия / Калининградская область     54°36′32″N   20°14′08″E
темп.,
°C
ветер,
м/с
пор.,
м/с
влажн.,
%
обл.,
%
осадки,
мм/ч
давл.,
гПа
погр.,
м
15 апреля, чт
чт1523:00+4с51083100 0.0 1023736
02:00+3ссв71291100 0.3 1022694
05:00+2ссв71497100 1.2 1022601
08:00+2ссв71397100 2.3 1022580
11:00+4ссв71386100 0.4 1021741
14:00+7св71175100 0.5 1021866
17:00+7ссв497682 0.0 1021492
20:00+6ссв51176100 0.0 1021284
16 апреля, пт
пт1623:00+5ссв61369100 0.0 1021363
02:00+4ссв5107798 0.0 1020475
05:00+3ссв51089100 0.1 1019525
08:00+3ссв5990100 0.5 1019450
11:00+4ссв5891100 0.4 1020429
14:00+5ссв4792100 0.9 1019427
17:00+5ссв3796100 0.4 1020352
20:00+5св3697100 0.5 1021255
17 апреля, сб
сб1723:00+6с3697100 0.1 1021168
02:00+6ссв3897100 0.1 1020210
05:00+6ссв3897100 0.0 1020245
08:00+7св4897100 0.3 1020366
11:00+11всв5782100 0.0 1021729
14:00+11всв4784100 0.4 1021627
17:00+10вюв368422 0.1 1021484
20:00+8всв2288100 0.1 102214
18 апреля, вс
вс1823:00+7всв3109899 0.2 1022249
02:00+7всв3996100 0.4 1022201
05:00+7всв3898100 0.2 1021224
08:00+8в3594100 0.3 1021229
11:00+8вюв2597100 2.0 1021261
14:00+11вюв347969 2.3 1021676
17:00+11юв4676100 0.4 1021493
20:00+8вюв3485100 0.4 102269
19 апреля, пн
пн1923:00+8вюв3579100 0.0 102291
02:00+7в3379100 0.0 102264
05:00+7всв3779100 0.0 1021136
08:00+8всв3786100 0.0 1021215
11:00+13в4660100 0.1 10201109
14:00+14в4653100 0.1 10181495
17:00+13всв3669100 0.8 1017648
20:00+9св4882100 0.9 1016210